Lid_Strength_Index
17 15 15 16 16 17 18 16 17 16 18 16 15 15 15 14 14 15 16 16 14 15 15 15 15 14 14 14 14 14 14 14 14 13 12 12 12 11 11 10 9 9 9 9
15 17 16 17 17 16 16 17 16 20 20 15 14 14 15 15 14 15 15 16 16 15 15 15 17 15 14 15 14 14 14 14 14 13 13 12 12 12 11 10 10 8 8 8
18 16 15 17 16 17 16 15 15 18 15 15 15 14 14 15 14 14 15 15 15 15 16 16 15 15 15 14 13 13 13 13 13 13 13 13 12 12 11 10 9 8 8 8
20 16 21 14 14 13 15 15 14 16 15 14 13 12 13 13 13 14 14 15 15 15 16 15 15 15 14 14 13 13 13 13 13 13 13 13 12 12 11 10 9 8 8 8
18 20 16 15 16 16 15 15 13 14 14 14 14 14 15 13 13 13 14 14 15 15 15 15 15 14 14 14 13 13 13 13 12 12 12 13 12 12 11 11 10 9 9 9
17 19 21 15 14 13 13 17 13 13 13 15 14 16 15 13 13 13 14 15 15 14 15 15 15 14 14 15 14 15 14 13 13 12 12 12 12 12 12 10 11 13 11 10
17 23 18 14 14 12 18 16 13 12 13 13 14 13 12 13 14 14 14 15 15 15 15 15 15 14 15 16 16 15 15 14 13 12 12 11 12 13 12 11 12 12 12 12
17 24 20 13 14 14 13 14 13 12 12 12 13 13 12 13 14 14 14 15 15 15 16 16 15 15 16 16 15 15 14 14 14 13 13 12 12 12 12 11 12 13 13 14
15 14 13 11 13 12 13 13 14 12 11 11 13 13 13 14 14 15 15 16 16 16 17 18 15 14 15 15 14 13 13 13 13 13 13 13 12 12 12 12 13 13 13 14
15 13 13 12 12 12 11 13 13 12 12 11 13 13 13 13 15 16 16 17 18 18 19 20 18 16 15 14 13 12 12 13 13 13 13 12 12 12 12 12 13 13 13 13
16 14 13 13 13 11 12 13 13 12 11 11 12 13 13 14 15 16 17 19 19 19 20 21 22 19 15 14 16 13 12 12 12 12 12 12 12 12 12 12 12 12 12 12
15 12 12 12 11 11 12 12 13 13 13 13 12 13 14 15 16 17 18 20 20 21 21 22 22 22 20 15 16 16 15 15 14 11 11 11 11 12 10 10 10 10 10 11
11 12 12 12 11 11 12 12 12 12 12 13 14 14 15 17 17 19 20 20 19 21 23 23 23 22 24 22 19 18 16 15 16 15 13 12 12 12 12 11 10 9 9 9
12 12 13 12 12 13 13 15 15 15 14 14 14 15 16 18 19 20 20 21 23 24 25 26 25 24 24 23 22 21 20 16 14 14 14 14 12 12 12 12 12 11 10 10
11 11 10 13 15 17 15 14 15 16 16 17 16 17 18 19 20 21 22 22 23 24 26 26 26 26 26 26 23 24 21 20 16 14 14 13 13 13 12 12 12 12 12 10
14 15 13 14 15 15 14 15 16 17 17 17 17 17 17 19 22 22 23 23 20 22 26 27 26 26 28 29 26 25 25 23 24 22 19 15 13 14 13 13 12 12 12 11
13 17 16 16 15 15 15 15 15 16 16 16 18 19 21 23 24 23 24 26 26 26 26 27 27 30 30 27 24 24 25 25 25 21 20 18 14 14 13 13 13 13 12 11
16 12 12 13 15 17 17 17 17 17 19 20 20 21 20 19 22 23 25 26 26 26 27 27 30 30 29 28 25 24 25 24 21 17 15 15 15 14 14 14 13 13 12 12
17 16 16 16 16 17 19 20 21 20 20 19 19 21 22 21 23 27 27 25 24 26 27 32 23 29 28 26 25 24 25 26 25 25 23 19 16 15 14 14 14 13 13 12
21 21 21 20 20 19 21 20 20 20 20 20 22 23 24 26 26 25 25 26 30 29 33 34 33 30 31 29 26 27 28 27 27 28 27 27 25 21 19 16 14 13 13 13
22 22 22 23 24 24 22 21 20 22 22 20 20 22 25 28 27 27 26 27 30 34 34 31 32 30 29 28 26 30 31 30 30 30 31 30 28 27 25 24 21 18 17 15
22 23 24 23 24 26 24 23 23 24 25 25 26 25 25 28 28 30 34 29 31 31 33 32 31 30 28 26 28 30 30 30 30 30 29 30 30 28 26 25 24 22 21 20
23 23 24 24 25 26 25 25 24 24 25 25 25 25 26 29 31 27 29 32 34 32 32 32 30 26 23 28 30 30 31 30 30 28 28 28 27 27 26 25 24 23 22 21
25 25 25 25 24 24 26 27 27 27 29 29 30 30 29 29 31 35 33 32 31 31 31 31 28 23 28 32 32 31 31 31 30 30 29 27 28 27 26 25 25 24 23 22
26 25 24 25 26 28 28 28 28 29 29 30 31 32 32 33 29 33 36 35 30 32 33 31 25 26 35 36 35 33 33 32 32 32 31 30 30 30 29 28 26 25 25 24
29 30 31 31 31 30 30 28 30 33 31 31 32 32 34 37 36 36 36 34 35 33 35 36 36 36 36 36 36 34 32 31 30 30 30 29 29 29 28 27 27 26 25 25
30 29 29 31 32 32 32 32 29 34 36 32 32 35 36 37 36 35 33 34 34 35 35 36 36 35 36 36 36 34 33 32 30 29 31 30 29 29 28 28 27 26 26 25